CW4621 Weather Reports


Display with metric or nautical units.
time (UTC)temp
F
wind
direction
speed
MPH
gust
MPH
rain 1hr
in
rain 24hr
in
rain mn
in
humidity
%
barometer
mb
20260906234104 72 81 1.0 2.0 0.00 0.00 0.00 69 1014.5
20260906233604 72 339 0.0 3.0 0.00 0.00 0.00 68 1014.4
20260906233105 73 124 1.0 3.0 0.00 0.00 0.00 68 1014.3
20260906232605 73 102 1.0 7.0 0.00 0.00 0.00 67 1014.3
20260906232104 73 118 1.0 5.0 0.00 0.00 0.00 67 1014.3
20260906231605 74 122 1.0 3.0 0.00 0.00 0.00 67 1014.3
20260906231104 74 3 0.0 5.0 0.00 0.00 0.00 66 1014.3
20260906230604 75 39 1.0 5.0 0.00 0.00 0.00 65 1014.2
20260906230105 75 118 0.0 2.0 0.00 0.00 0.00 64 1014.2
20260906225604 76 168 1.0 3.0 0.00 0.00 0.00 62 1014.2
20260906225105 77 144 1.0 3.0 0.00 0.00 0.00 61 1014.2
20260906224604 77 171 1.0 3.0 0.00 0.00 0.00 58 1014.1
20260906224104 78 8 0.0 1.0 0.00 0.00 0.00 51 1014.0
20260906223605 78 353 0.0 3.0 0.00 0.00 0.00 50 1014.0
20260906223104 79 77 0.0 1.0 0.00 0.00 0.00 49 1014.0
20260906222604 79 74 0.0 1.0 0.00 0.00 0.00 49 1014.0
20260906222104 79 82 0.0 2.0 0.00 0.00 0.00 47 1014.1
20260906221604 80 358 0.0 1.0 0.00 0.00 0.00 47 1013.9
20260906220104 81 38 0.0 3.0 0.00 0.00 0.00 48 1013.7
20260906215605 81 21 1.0 2.0 0.00 0.00 0.00 47 1013.7
20260906215104 82 32 0.0 2.0 0.00 0.00 0.00 47 1013.7
20260906214604 82 287 0.0 1.0 0.00 0.00 0.00 47 1013.6
20260906213604 82 329 0.0 2.0 0.00 0.00 0.00 47 1013.6
20260906213104 82 353 0.0 3.0 0.00 0.00 0.00 46 1013.6
20260906212604 82 20 0.0 3.0 0.00 0.00 0.00 45 1013.5
20260906212104 82 248 0.0 1.0 0.00 0.00 0.00 46 1013.5
20260906211604 82 258 1.0 3.0 0.00 0.00 0.00 45 1013.5
20260906211104 82 120 1.0 3.0 0.00 0.00 0.00 45 1013.5
20260906210604 82 10 1.0 3.0 0.00 0.00 0.00 46 1013.4
20260906210104 81 85 0.0 2.0 0.00 0.00 0.00 46 1013.5
20260906205604 81 59 0.0 2.0 0.00 0.00 0.00 46 1013.4
20260906205104 82 23 1.0 3.0 0.00 0.00 0.00 45 1013.4
20260906204604 82 339 1.0 3.0 0.00 0.00 0.00 46 1013.4
20260906204105 82 357 1.0 3.0 0.00 0.00 0.00 46 1013.5
20260906203604 82 348 2.0 3.0 0.00 0.00 0.00 44 1013.6
20260906203104 82 320 1.0 3.0 0.00 0.00 0.00 45 1013.5
20260906202604 82 344 0.0 5.0 0.00 0.00 0.00 45 1013.5
20260906202105 82 209 1.0 3.0 0.00 0.00 0.00 46 1013.5
20260906201604 82 11 1.0 7.0 0.00 0.00 0.00 45 1013.5
20260906201104 82 325 1.0 3.0 0.00 0.00 0.00 46 1013.5
20260906200604 82 26 1.0 3.0 0.00 0.00 0.00 48 1013.6
20260906200104 81 333 1.0 3.0 0.00 0.00 0.00 47 1013.6
20260906195104 81 49 1.0 5.0 0.00 0.00 0.00 48 1013.6
20260906194104 81 52 1.0 3.0 0.00 0.00 0.00 47 1013.6
20260906193604 81 87 1.0 5.0 0.00 0.00 0.00 47 1013.6
20260906193104 81 31 1.0 5.0 0.00 0.00 0.00 47 1013.7
20260906192604 81 357 1.0 3.0 0.00 0.00 0.00 47 1013.7
20260906192104 81 1 1.0 3.0 0.00 0.00 0.00 49 1013.7
20260906191604 81 26 1.0 3.0 0.00 0.00 0.00 50 1013.7
20260906191105 80 21 1.0 5.0 0.00 0.00 0.00 50 1013.7
20260906190604 80 70 1.0 2.0 0.00 0.00 0.00 51 1013.7
20260906190104 80 14 1.0 5.0 0.00 0.00 0.00 51 1013.7
20260906185604 79 76 1.0 3.0 0.00 0.00 0.00 54 1013.8
20260906185105 79 22 1.0 3.0 0.00 0.00 0.00 54 1013.8
20260906184604 80 320 1.0 3.0 0.00 0.00 0.00 52 1013.9
20260906184104 81 47 1.0 3.0 0.00 0.00 0.00 53 1013.9
20260906183604 81 11 1.0 3.0 0.00 0.00 0.00 53 1013.9
20260906182604 80 255 1.0 3.0 0.00 0.00 0.00 56 1014.0
20260906182104 80 5 2.0 3.0 0.00 0.00 0.00 55 1014.1
20260906181604 80 37 2.0 5.0 0.00 0.00 0.00 54 1014.0
20260906181104 80 18 1.0 3.0 0.00 0.00 0.00 55 1014.1
20260906180604 80 191 1.0 3.0 0.00 0.00 0.00 57 1014.1
20260906175604 79 8 0.0 3.0 0.00 0.00 0.00 57 1014.2
20260906175104 78 38 1.0 3.0 0.00 0.00 0.00 57 1014.2
20260906174604 79 332 1.0 7.0 0.00 0.00 0.00 57 1014.2
20260906174104 80 347 2.0 7.0 0.00 0.00 0.00 55 1014.2
20260906173604 80 264 1.0 3.0 0.00 0.00 0.00 54 1014.1
20260906173105 80 23 2.0 8.0 0.00 0.00 0.00 54 1014.2
20260906172605 79 98 0.0 3.0 0.00 0.00 0.00 56 1014.2
20260906172104 79 6 2.0 5.0 0.00 0.00 0.00 55 1014.2
20260906171604 79 343 1.0 2.0 0.00 0.00 0.00 57 1014.2
20260906170604 80 8 1.0 5.0 0.00 0.00 0.00 55 1014.2
20260906170106 80 5 1.0 2.0 0.00 0.00 0.00 56 1014.2
20260906165603 79 24 0.0 3.0 0.00 0.00 0.00 57 1014.2
20260906164604 78 14 1.0 6.0 0.00 0.00 0.00 58 1014.3
20260906164104 78 359 2.0 7.0 0.00 0.00 0.00 59 1014.3
20260906163604 78 324 1.0 3.0 0.00 0.00 0.00 59 1014.3
20260906163104 78 17 2.0 8.0 0.00 0.00 0.00 58 1014.4
20260906162604 79 18 1.0 3.0 0.00 0.00 0.00 60 1014.4
20260906161604 78 351 2.0 5.0 0.00 0.00 0.00 61 1014.4
20260906161105 77 22 1.0 3.0 0.00 0.00 0.00 61 1014.4
20260906160604 76 39 2.0 5.0 0.00 0.00 0.00 62 1014.4
20260906160105 76 52 0.0 3.0 0.00 0.00 0.00 62 1014.5
20260906155604 77 333 3.0 7.0 0.00 0.00 0.00 60 1014.5
20260906155104 78 31 1.0 3.0 0.00 0.00 0.00 64 1014.4
20260906154604 77 43 1.0 10.0 0.00 0.00 0.00 64 1014.4
20260906154104 76 31 1.0 8.0 0.00 0.00 0.00 65 1014.4
20260906153604 76 26 1.0 7.0 0.00 0.00 0.00 64 1014.4
20260906152605 76 12 2.0 5.0 0.00 0.00 0.00 64 1014.4
20260906152105 76 8 0.0 6.0 0.00 0.00 0.00 67 1014.5
20260906151605 76 299 1.0 3.0 0.00 0.00 0.00 66 1014.5
20260906150604 76 16 1.0 5.0 0.00 0.00 0.00 65 1014.6
20260906150105 76 17 1.0 3.0 0.00 0.00 0.00 66 1014.5
20260906145604 76 24 2.0 3.0 0.00 0.00 0.00 65 1014.5
20260906144604 76 2 2.0 5.0 0.00 0.00 0.00 65 1014.3
20260906143606 77 24 0.0 3.0 0.00 0.00 0.00 66 1014.4
20260906142604 76 314 1.0 2.0 0.00 0.00 0.00 67 1014.3
20260906142105 76 32 1.0 3.0 0.00 0.00 0.00 67 1014.3
20260906141604 75 28 1.0 3.0 0.00 0.00 0.00 68 1014.4
20260906140605 75 29 1.0 5.0 0.00 0.00 0.00 70 1014.3
20260906140105 74 356 1.0 3.0 0.00 0.00 0.00 71 1014.2
20260906135604 74 246 0.0 2.0 0.00 0.00 0.00 72 1014.2
20260906135104 74 353 0.0 2.0 0.00 0.00 0.00 72 1014.2
20260906134104 73 329 1.0 3.0 0.00 0.00 0.00 72 1014.1
20260906133604 73 21 1.0 3.0 0.00 0.00 0.00 73 1014.1
20260906133105 72 23 2.0 6.0 0.00 0.00 0.00 72 1014.1
20260906132104 72 349 1.0 6.0 0.00 0.00 0.00 73 1014.1
20260906130604 72 6 1.0 3.0 0.00 0.00 0.00 73 1014.1
20260906130104 72 348 1.0 3.0 0.00 0.00 0.00 73 1014.0
20260906124605 71 3 0.0 1.0 0.00 0.00 0.00 73 1014.0
20260906124105 71 262 1.0 3.0 0.00 0.00 0.00 73 1013.9
20260906123606 71 343 0.0 3.0 0.00 0.00 0.00 73 1013.9
20260906123104 70 0 0.0 1.0 0.00 0.00 0.00 74 1013.8
20260906122604 69 359 0.0 2.0 0.00 0.00 0.00 74 1013.8
20260906122104 69 344 0.0 2.0 0.00 0.00 0.00 74 1013.8
20260906121605 69 356 1.0 3.0 0.00 0.00 0.00 74 1013.9
20260906121104 69 356 0.0 1.0 0.00 0.00 0.00 75 1013.8
20260906120605 68 44 1.0 3.0 0.00 0.00 0.00 75 1013.7
20260906120104 68 352 0.0 1.0 0.00 0.00 0.00 76 1013.6
20260906115604 67 336 0.0 1.0 0.00 0.00 0.00 79 1013.6
20260906115105 66 336 0.0 1.0 0.00 0.00 0.00 83 1013.6
20260906114604 64 330 0.0 1.0 0.00 0.00 0.00 89 1013.6
20260906114105 63 19 0.0 1.0 0.00 0.00 0.00 92 1013.4
20260906113604 62 36 0.0 1.0 0.00 0.00 0.00 92 1013.4
20260906113104 62 318 0.0 0.0 0.00 0.00 0.00 92 1013.3
20260906112105 61 311 0.0 0.0 0.00 0.00 0.00 91 1013.1
20260906111604 61 311 0.0 0.0 0.00 0.00 0.00 89 1013.0
20260906111104 60 311 0.0 0.0 0.00 0.00 0.00 88 1013.0
20260906110605 60 311 0.0 0.0 0.00 0.00 0.00 88 1013.0
20260906110104 60 311 0.0 0.0 0.00 0.00 0.00 87 1013.0
20260906105605 60 311 0.0 0.0 0.00 0.00 0.00 86 1012.9
20260906105104 60 311 0.0 0.0 0.00 0.00 0.00 86 1012.8
20260906103605 60 311 0.0 0.0 0.00 0.00 0.00 85 1012.7
20260906103105 60 311 0.0 0.0 0.00 0.00 0.00 85 1012.5
20260906102604 61 311 0.0 0.0 0.00 0.00 0.00 85 1012.4
20260906102105 61 311 0.0 0.0 0.00 0.00 0.00 85 1012.3
20260906101604 61 311 0.0 2.0 0.00 0.00 0.00 85 1012.3
20260906101105 61 349 0.0 0.0 0.00 0.00 0.00 84 1012.3
20260906100605 61 349 0.0 0.0 0.00 0.00 0.00 83 1012.3
20260906100105 60 349 0.0 0.0 0.00 0.00 0.00 83 1012.2
20260906095604 60 349 0.0 0.0 0.00 0.00 0.00 82 1012.2
20260906095104 61 349 0.0 0.0 0.00 0.00 0.00 82 1012.1
20260906094605 61 349 0.0 0.0 0.00 0.00 0.00 82 1012.0
20260906094104 61 349 0.0 0.0 0.00 0.00 0.00 82 1012.0
20260906093604 61 349 0.0 0.0 0.00 0.00 0.00 82 1011.9
20260906093104 61 349 0.0 0.0 0.00 0.00 0.00 82 1011.8
20260906092604 61 349 0.0 0.0 0.00 0.00 0.00 82 1011.7
20260906091604 61 349 0.0 0.0 0.00 0.00 0.00 82 1011.4
20260906090605 61 349 0.0 0.0 0.00 0.00 0.00 81 1011.5
20260906090104 62 349 0.0 0.0 0.00 0.00 0.00 82 1011.5
20260906085605 61 349 0.0 0.0 0.00 0.00 0.00 81 1011.5
20260906085105 62 349 0.0 0.0 0.00 0.00 0.00 81 1011.3
20260906084604 62 349 0.0 0.0 0.00 0.00 0.00 81 1011.3
20260906084104 62 349 0.0 0.0 0.00 0.00 0.00 81 1011.2
20260906083605 62 349 0.0 1.0 0.00 0.00 0.00 81 1011.1
20260906083104 62 349 0.0 0.0 0.00 0.00 0.00 81 1011.1
20260906082104 62 349 0.0 0.0 0.00 0.00 0.00 81 1011.0
20260906081604 62 349 0.0 0.0 0.00 0.00 0.00 81 1011.0
20260906081105 62 349 0.0 0.0 0.00 0.00 0.00 80 1011.0
20260906080604 62 349 0.0 0.0 0.00 0.00 0.00 80 1011.0
20260906080105 62 349 0.0 0.0 0.00 0.00 0.00 80 1011.0
20260906075604 62 349 0.0 0.0 0.00 0.00 0.00 80 1011.0
20260906074605 62 349 0.0 0.0 0.00 0.00 0.00 80 1011.0
20260906074104 62 349 0.0 0.0 0.00 0.00 0.00 80 1011.0
20260906073604 62 349 0.0 0.0 0.00 0.00 0.00 80 1011.0
20260906072105 63 349 0.0 0.0 0.00 0.00 0.00 80 1011.0
20260906071604 63 349 0.0 0.0 0.00 0.00 0.00 80 1011.0
20260906070105 63 349 0.0 0.0 0.00 0.00 0.00 81 1011.0
20260906065604 63 349 0.0 0.0 0.00 0.00 0.00 80 1010.9
20260906065104 62 349 0.0 0.0 0.00 0.00 0.00 80 1011.0
20260906064604 62 349 0.0 0.0 0.00 0.00 0.00 80 1011.0
20260906064105 62 349 0.0 0.0 0.00 0.00 0.00 80 1011.0
20260906063604 62 349 0.0 0.0 0.00 0.00 0.00 80 1011.0
20260906063104 62 349 0.0 0.0 0.00 0.00 0.00 80 1011.1
20260906062604 62 349 0.0 0.0 0.00 0.00 0.00 80 1011.1
20260906062104 62 349 0.0 0.0 0.00 0.00 0.00 79 1011.1
20260906061604 62 349 0.0 0.0 0.00 0.00 0.00 79 1011.2
20260906061104 62 349 0.0 0.0 0.00 0.00 0.00 79 1011.2
20260906060104 63 349 0.0 0.0 0.00 0.00 0.00 79 1011.3
20260906055604 63 349 0.0 0.0 0.00 0.00 0.00 79 1011.3
20260906055104 63 349 0.0 0.0 0.00 0.00 0.00 79 1011.3
20260906054605 63 349 0.0 0.0 0.00 0.00 0.00 79 1011.3
20260906054105 63 349 0.0 0.0 0.00 0.00 0.00 78 1011.3
20260906053604 63 349 0.0 0.0 0.00 0.00 0.00 78 1011.4
20260906053104 63 349 0.0 0.0 0.00 0.00 0.00 78 1011.4
20260906052604 63 349 0.0 0.0 0.00 0.00 0.00 78 1011.4
20260906052104 64 349 0.0 0.0 0.00 0.00 0.00 78 1011.4
20260906051604 64 349 0.0 0.0 0.00 0.00 0.00 78 1011.4
20260906051104 64 349 0.0 0.0 0.00 0.00 0.00 78 1011.4
20260906050604 64 349 0.0 0.0 0.00 0.00 0.00 78 1011.5
20260906050104 64 349 0.0 0.0 0.00 0.00 0.00 78 1011.5
20260906045604 64 349 0.0 0.0 0.00 0.00 0.00 78 1011.5
20260906044604 64 349 0.0 0.0 0.00 0.00 0.00 78 1011.5
20260906044104 64 349 0.0 0.0 0.00 0.00 0.00 77 1011.6
20260906043604 64 349 0.0 0.0 0.00 0.00 0.00 77 1011.6
20260906043105 64 349 0.0 0.0 0.00 0.00 0.00 78 1011.6
20260906042104 64 349 0.0 0.0 0.00 0.00 0.00 77 1011.6
20260906041604 64 349 0.0 0.0 0.00 0.00 0.00 76 1011.6
20260906041105 65 349 0.0 0.0 0.00 0.00 0.00 76 1011.6
20260906040605 65 349 0.0 0.0 0.00 0.00 0.00 76 1011.5
20260906040104 65 349 0.0 0.0 0.00 0.00 0.00 77 1011.4
20260906035604 65 349 0.0 0.0 0.00 0.00 0.00 77 1011.4
20260906035104 65 349 0.0 0.0 0.00 0.00 0.00 76 1011.4
20260906034604 65 349 0.0 0.0 0.00 0.00 0.00 76 1011.5
20260906033604 65 349 0.0 0.0 0.00 0.00 0.00 75 1011.5
20260906033104 65 349 0.0 0.0 0.00 0.00 0.00 75 1011.4
20260906032604 66 349 0.0 0.0 0.00 0.00 0.00 75 1011.4
20260906032105 66 349 0.0 0.0 0.00 0.00 0.00 75 1011.4
20260906031604 66 349 0.0 0.0 0.00 0.00 0.00 75 1011.3
20260906031105 66 349 0.0 0.0 0.00 0.00 0.00 74 1011.2
20260906030604 66 349 0.0 0.0 0.00 0.00 0.00 74 1011.2
20260906025605 66 349 0.0 0.0 0.00 0.00 0.00 73 1011.2
20260906025106 66 349 0.0 0.0 0.00 0.00 0.00 73 1011.2
20260906024605 66 349 0.0 0.0 0.00 0.00 0.00 73 1011.2
20260906024104 67 349 0.0 0.0 0.00 0.00 0.00 73 1011.2
20260906023605 67 349 0.0 0.0 0.00 0.00 0.00 73 1011.2
20260906023104 67 349 0.0 0.0 0.00 0.00 0.00 72 1011.2
20260906022605 67 349 0.0 0.0 0.00 0.00 0.00 73 1011.2
20260906022104 67 349 0.0 0.0 0.00 0.00 0.00 72 1011.1
20260906021605 67 349 0.0 0.0 0.00 0.00 0.00 72 1011.1
20260906021105 67 349 0.0 0.0 0.00 0.00 0.00 71 1011.1
20260906020605 67 349 0.0 0.0 0.00 0.00 0.00 71 1011.2
20260906015604 68 349 0.0 0.0 0.00 0.00 0.00 71 1011.1
20260906015105 68 349 0.0 0.0 0.00 0.00 0.00 71 1011.0
20260906014604 68 349 0.0 0.0 0.00 0.00 0.00 70 1010.9
20260906013605 68 349 0.0 0.0 0.00 0.00 0.00 69 1010.8
20260906012605 69 349 0.0 0.0 0.00 0.00 0.00 69 1010.8
20260906012105 69 349 0.0 0.0 0.00 0.00 0.00 68 1010.7
20260906011605 69 349 0.0 0.0 0.00 0.00 0.00 68 1010.5
20260906011105 69 349 0.0 0.0 0.00 0.00 0.00 67 1010.5
20260906010605 69 349 0.0 0.0 0.00 0.00 0.00 67 1010.5
20260906010105 70 349 0.0 0.0 0.00 0.00 0.00 67 1010.5
20260906005605 70 349 0.0 0.0 0.00 0.00 0.00 66 1010.5
20260906004105 71 349 0.0 0.0 0.00 0.00 0.00 63 1010.5
20260906003605 71 349 0.0 0.0 0.00 0.00 0.00 64 1010.4
20260906003105 71 349 0.0 0.0 0.00 0.00 0.00 63 1010.3
20260906002604 71 349 0.0 0.0 0.00 0.00 0.00 63 1010.2
20260906002105 72 349 0.0 0.0 0.00 0.00 0.00 62 1010.2
20260906001104 72 349 0.0 0.0 0.00 0.00 0.00 61 1010.1
20260906000605 73 349 0.0 0.0 0.00 0.00 0.00 60 1010.0
20260906000105 73 349 0.0 0.0 0.00 0.00 0.00 60 1010.0
20260905235604 73 349 0.0 0.0 0.00 0.00 0.00 59 1009.9
20260905235104 73 349 0.0 1.0 0.00 0.00 0.00 59 1009.8
20260905234605 74 349 0.0 1.0 0.00 0.00 0.00 59 1009.7